Time,TemperatureF,DewpointF,PressureIn,WindDirection,WindDirectionDegrees,WindSpeedMPH,WindSpeedGustMPH,Humidity,HourlyPrecipIn,Conditions,Clouds,dailyrainin,SoftwareType,DateUTC
2013-01-08 00:05:00,62.7,61.2,30.18,North,349,1.0,2.0,95,0.00,,,0.00,Wunderground v.1.15,2013-01-08 05:05:00,
2013-01-08 00:15:00,62.7,61.2,30.18,NE,34,1.0,1.0,95,0.00,,,0.00,Wunderground v.1.15,2013-01-08 05:15:00,
2013-01-08 00:20:00,62.6,61.1,30.18,NNW,346,0.0,1.0,95,0.00,,,0.00,Wunderground v.1.15,2013-01-08 05:20:00,
2013-01-08 00:25:00,62.6,61.1,30.18,NNE,15,1.0,1.0,95,0.00,,,0.00,Wunderground v.1.15,2013-01-08 05:25:00,
2013-01-08 00:30:00,62.5,61.3,30.17,NW,322,1.0,2.0,96,0.00,,,0.00,Wunderground v.1.15,2013-01-08 05:30:00,
2013-01-08 00:35:00,62.5,61.3,30.17,WNW,301,2.0,2.0,96,0.00,,,0.00,Wunderground v.1.15,2013-01-08 05:35:00,
2013-01-08 00:40:00,62.5,61.3,30.17,NE,39,1.0,2.0,96,0.00,,,0.00,Wunderground v.1.15,2013-01-08 05:40:00,
2013-01-08 00:48:00,62.4,61.0,30.17,NNE,13,0.0,4.0,96,0.00,,,0.00,weatherlink.com 1.10,2013-01-08 05:48:00,
2013-01-08 00:55:00,62.5,61.3,30.17,NNE,18,1.0,1.0,96,0.00,,,0.00,Wunderground v.1.15,2013-01-08 05:55:00,
2013-01-08 01:00:00,62.5,61.3,30.17,WNW,285,1.0,3.0,96,0.00,,,0.00,Wunderground v.1.15,2013-01-08 06:00:00,
2013-01-08 01:10:00,62.4,61.2,30.17,NNE,20,1.0,1.0,96,0.00,,,0.00,Wunderground v.1.15,2013-01-08 06:10:00,
2013-01-08 01:15:00,62.4,61.2,30.17,NNE,15,1.0,2.0,96,0.00,,,0.00,Wunderground v.1.15,2013-01-08 06:15:00,
2013-01-08 01:20:00,62.3,61.1,30.17,WNW,293,1.0,3.0,96,0.00,,,0.00,Wunderground v.1.15,2013-01-08 06:20:00,
2013-01-08 01:30:00,62.4,61.5,30.17,NNE,13,1.0,1.0,97,0.00,,,0.00,Wunderground v.1.15,2013-01-08 06:30:00,
2013-01-08 01:35:00,62.4,61.2,30.17,North,5,1.0,1.0,96,0.00,,,0.00,Wunderground v.1.15,2013-01-08 06:35:00,
2013-01-08 01:40:00,62.4,61.2,30.17,North,8,1.0,1.0,96,0.00,,,0.00,Wunderground v.1.15,2013-01-08 06:40:00,
2013-01-08 01:50:00,62.4,61.5,30.17,NNE,13,1.0,1.0,97,0.00,,,0.00,Wunderground v.1.15,2013-01-08 06:50:00,
2013-01-08 01:55:00,62.4,61.5,30.17,North,5,1.0,2.0,97,0.00,,,0.00,Wunderground v.1.15,2013-01-08 06:55:00,
2013-01-08 02:00:00,62.4,61.2,30.17,North,11,1.0,2.0,96,0.00,,,0.00,Wunderground v.1.15,2013-01-08 07:00:00,
2013-01-08 02:10:00,62.4,61.5,30.17,North,4,2.0,2.0,97,0.00,,,0.00,Wunderground v.1.15,2013-01-08 07:10:00,
2013-01-08 02:15:00,62.5,61.3,30.17,NNE,15,2.0,2.0,96,0.00,,,0.00,Wunderground v.1.15,2013-01-08 07:15:00,
2013-01-08 02:25:00,62.4,61.2,30.16,North,356,1.0,1.0,96,0.00,,,0.00,Wunderground v.1.15,2013-01-08 07:25:00,
2013-01-08 02:30:00,62.4,61.2,30.16,NW,311,2.0,2.0,96,0.00,,,0.00,Wunderground v.1.15,2013-01-08 07:30:00,
2013-01-08 02:40:00,62.4,61.5,30.16,North,8,2.0,2.0,97,0.00,,,0.00,Wunderground v.1.15,2013-01-08 07:40:00,
2013-01-08 02:45:00,62.5,61.6,30.16,North,10,2.0,2.0,97,0.00,,,0.00,Wunderground v.1.15,2013-01-08 07:45:00,
2013-01-08 02:50:00,62.6,61.7,30.16,NE,51,1.0,1.0,97,0.00,,,0.00,Wunderground v.1.15,2013-01-08 07:50:00,
2013-01-08 02:59:00,62.7,62.0,30.16,NNE,12,1.0,3.0,96,0.00,,,0.00,weatherlink.com 1.10,2013-01-08 07:59:00,
2013-01-08 03:05:00,62.8,61.6,30.15,NNE,25,1.0,1.0,96,0.00,,,0.00,Wunderground v.1.15,2013-01-08 08:05:00,
2013-01-08 03:10:00,62.8,61.6,30.16,NNE,28,0.0,0.0,96,0.00,,,0.00,Wunderground v.1.15,2013-01-08 08:10:00,
2013-01-08 03:16:00,62.8,62.0,30.16,NNE,29,0.0,1.0,96,0.00,,,0.00,weatherlink.com 1.10,2013-01-08 08:16:00,
2013-01-08 03:25:00,62.8,61.6,30.16,NE,48,0.0,1.0,96,0.00,,,0.00,Wunderground v.1.15,2013-01-08 08:25:00,
2013-01-08 03:30:00,62.7,61.5,30.15,NE,48,0.0,0.0,96,0.00,,,0.00,Wunderground v.1.15,2013-01-08 08:30:00,
2013-01-08 03:40:00,62.7,61.8,30.15,NE,38,0.0,0.0,97,0.00,,,0.00,Wunderground v.1.15,2013-01-08 08:40:00,
2013-01-08 03:45:00,62.7,61.8,30.15,NE,38,0.0,0.0,97,0.00,,,0.00,Wunderground v.1.15,2013-01-08 08:45:00,
2013-01-08 03:50:00,62.7,61.8,30.16,NE,38,0.0,0.0,97,0.00,,,0.00,Wunderground v.1.15,2013-01-08 08:50:00,
2013-01-08 03:55:00,62.7,61.8,30.15,NE,38,0.0,0.0,97,0.00,,,0.00,Wunderground v.1.15,2013-01-08 08:55:00,
2013-01-08 04:05:00,62.8,61.9,30.15,NE,36,0.0,0.0,97,0.00,,,0.00,Wunderground v.1.15,2013-01-08 09:05:00,
2013-01-08 04:10:00,62.8,61.9,30.15,NNE,22,0.0,0.0,97,0.00,,,0.00,Wunderground v.1.15,2013-01-08 09:10:00,
2013-01-08 04:20:00,62.8,61.9,30.15,North,356,1.0,1.0,97,0.00,,,0.00,Wunderground v.1.15,2013-01-08 09:20:00,
2013-01-08 04:25:00,62.8,61.9,30.15,NE,42,1.0,1.0,97,0.00,,,0.00,Wunderground v.1.15,2013-01-08 09:25:00,
2013-01-08 04:30:00,62.9,62.0,30.15,NNE,18,1.0,1.0,97,0.00,,,0.00,Wunderground v.1.15,2013-01-08 09:30:00,
2013-01-08 04:38:00,62.8,62.0,30.15,NNE,12,1.0,2.0,97,0.00,,,0.00,weatherlink.com 1.10,2013-01-08 09:38:00,
2013-01-08 04:45:00,62.8,61.9,30.15,North,10,1.0,1.0,97,0.00,,,0.00,Wunderground v.1.15,2013-01-08 09:45:00,
2013-01-08 04:50:00,62.9,62.0,30.15,NNE,13,1.0,1.0,97,0.00,,,0.00,Wunderground v.1.15,2013-01-08 09:50:00,
2013-01-08 04:55:00,62.9,62.0,30.16,North,8,1.0,1.0,97,0.00,,,0.00,Wunderground v.1.15,2013-01-08 09:55:00,
2013-01-08 05:05:00,62.9,62.0,30.16,NNE,19,1.0,1.0,97,0.00,,,0.00,Wunderground v.1.15,2013-01-08 10:05:00,
2013-01-08 05:10:00,63.0,62.1,30.16,NE,37,0.0,0.0,97,0.00,,,0.00,Wunderground v.1.15,2013-01-08 10:10:00,
2013-01-08 05:15:00,63.0,62.1,30.16,NE,37,0.0,0.0,97,0.00,,,0.00,Wunderground v.1.15,2013-01-08 10:15:00,
2013-01-08 05:25:00,63.1,62.2,30.16,NNE,18,0.0,1.0,97,0.00,,,0.00,Wunderground v.1.15,2013-01-08 10:25:00,
2013-01-08 05:30:00,63.2,62.3,30.16,NNE,18,1.0,1.0,97,0.00,,,0.00,Wunderground v.1.15,2013-01-08 10:30:00,
2013-01-08 05:35:00,63.2,62.3,30.16,NNE,18,1.0,1.0,97,0.00,,,0.00,Wunderground v.1.15,2013-01-08 10:35:00,
2013-01-08 05:44:00,63.1,62.0,30.16,NNE,18,0.0,1.0,97,0.00,,,0.00,weatherlink.com 1.10,2013-01-08 10:44:00,
2013-01-08 05:50:00,62.9,62.0,30.16,NNE,32,0.0,1.0,97,0.00,,,0.00,Wunderground v.1.15,2013-01-08 10:50:00,
2013-01-08 06:00:00,62.9,62.0,30.16,NNE,13,1.0,1.0,97,0.00,,,0.00,Wunderground v.1.15,2013-01-08 11:00:00,
2013-01-08 06:10:00,62.9,62.0,30.17,NNE,20,0.0,1.0,97,0.00,,,0.00,Wunderground v.1.15,2013-01-08 11:10:00,
2013-01-08 06:15:00,62.9,62.3,30.17,NE,34,0.0,1.0,98,0.00,,,0.00,Wunderground v.1.15,2013-01-08 11:15:00,
2013-01-08 06:25:00,62.9,62.3,30.16,NNE,30,0.0,1.0,98,0.00,,,0.00,Wunderground v.1.15,2013-01-08 11:25:00,
2013-01-08 06:30:00,62.8,62.2,30.17,NE,46,0.0,0.0,98,0.00,,,0.00,Wunderground v.1.15,2013-01-08 11:30:00,
2013-01-08 06:35:00,62.8,62.2,30.17,NE,47,0.0,0.0,98,0.00,,,0.00,Wunderground v.1.15,2013-01-08 11:35:00,
2013-01-08 06:45:00,62.8,62.2,30.17,NE,46,0.0,1.0,98,0.00,,,0.00,Wunderground v.1.15,2013-01-08 11:45:00,
2013-01-08 06:50:00,62.8,62.2,30.18,NE,46,0.0,0.0,98,0.00,,,0.00,Wunderground v.1.15,2013-01-08 11:50:00,
2013-01-08 06:55:00,62.8,62.2,30.18,NE,46,0.0,0.0,98,0.00,,,0.00,Wunderground v.1.15,2013-01-08 11:55:00,
2013-01-08 07:05:00,62.9,62.3,30.19,NE,45,0.0,0.0,98,0.00,,,0.00,Wunderground v.1.15,2013-01-08 12:05:00,
2013-01-08 07:10:00,62.9,62.3,30.19,NE,46,0.0,0.0,98,0.00,,,0.00,Wunderground v.1.15,2013-01-08 12:10:00,
2013-01-08 07:15:00,62.8,62.2,30.19,NE,46,0.0,0.0,98,0.00,,,0.00,Wunderground v.1.15,2013-01-08 12:15:00,
2013-01-08 07:20:00,62.7,62.1,30.19,NE,46,0.0,0.0,98,0.00,,,0.00,Wunderground v.1.15,2013-01-08 12:20:00,
2013-01-08 07:30:00,62.7,62.1,30.19,NE,46,0.0,0.0,98,0.00,,,0.00,Wunderground v.1.15,2013-01-08 12:30:00,
2013-01-08 07:35:00,62.7,62.1,30.19,NE,46,0.0,0.0,98,0.00,,,0.00,Wunderground v.1.15,2013-01-08 12:35:00,
2013-01-08 07:40:00,62.6,62.0,30.20,NE,45,0.0,0.0,98,0.00,,,0.00,Wunderground v.1.15,2013-01-08 12:40:00,
2013-01-08 07:50:00,62.6,62.0,30.20,NE,46,0.0,0.0,98,0.00,,,0.00,Wunderground v.1.15,2013-01-08 12:50:00,
2013-01-08 07:55:00,62.7,62.1,30.21,NE,46,0.0,0.0,98,0.00,,,0.00,Wunderground v.1.15,2013-01-08 12:55:00,
2013-01-08 08:00:00,62.9,62.3,30.21,NE,44,0.0,0.0,98,0.00,,,0.00,Wunderground v.1.15,2013-01-08 13:00:00,
2013-01-08 08:05:00,63.0,62.7,30.21,NE,46,0.0,0.0,99,0.00,,,0.00,Wunderground v.1.15,2013-01-08 13:05:00,
2013-01-08 08:15:00,63.7,63.4,30.21,NNE,12,0.0,1.0,99,0.00,,,0.00,Wunderground v.1.15,2013-01-08 13:15:00,
2013-01-08 08:25:00,64.3,64.0,30.22,NNE,24,1.0,1.0,99,0.00,,,0.00,Wunderground v.1.15,2013-01-08 13:25:00,
2013-01-08 08:30:00,64.7,64.4,30.22,NNE,24,0.0,0.0,99,0.00,,,0.00,Wunderground v.1.15,2013-01-08 13:30:00,
2013-01-08 08:40:00,65.5,65.2,30.23,NNE,22,0.0,0.0,99,0.00,,,0.00,Wunderground v.1.15,2013-01-08 13:40:00,
2013-01-08 08:45:00,66.0,65.7,30.23,NNE,26,1.0,1.0,99,0.00,,,0.00,Wunderground v.1.15,2013-01-08 13:45:00,
2013-01-08 08:55:00,67.3,66.7,30.24,NNW,329,1.0,1.0,98,0.00,,,0.00,Wunderground v.1.15,2013-01-08 13:55:00,
2013-01-08 09:00:00,68.3,67.1,30.24,NE,34,1.0,1.0,96,0.00,,,0.00,Wunderground v.1.15,2013-01-08 14:00:00,
2013-01-08 09:10:00,69.5,67.7,30.24,NE,44,1.0,1.0,94,0.00,,,0.00,Wunderground v.1.15,2013-01-08 14:10:00,
2013-01-08 09:15:00,70.2,68.1,30.24,NE,41,1.0,1.0,93,0.00,,,0.00,Wunderground v.1.15,2013-01-08 14:15:00,
2013-01-08 09:25:00,71.3,68.5,30.24,NNE,32,1.0,1.0,91,0.00,,,0.00,Wunderground v.1.15,2013-01-08 14:25:00,
2013-01-08 09:30:00,72.0,68.9,30.25,NE,34,1.0,1.0,90,0.00,,,0.00,Wunderground v.1.15,2013-01-08 14:30:00,
2013-01-08 09:35:00,72.9,69.5,30.25,NE,51,0.0,1.0,89,0.00,,,0.00,Wunderground v.1.15,2013-01-08 14:35:00,
2013-01-08 09:45:00,73.8,69.0,30.25,NNE,32,0.0,0.0,85,0.00,,,0.00,Wunderground v.1.15,2013-01-08 14:45:00,
2013-01-08 09:50:00,74.4,69.6,30.25,NE,51,0.0,0.0,85,0.00,,,0.00,Wunderground v.1.15,2013-01-08 14:50:00,
2013-01-08 10:00:00,75.3,69.4,30.25,East,95,1.0,1.0,82,0.00,,,0.00,Wunderground v.1.15,2013-01-08 15:00:00,
2013-01-08 10:05:00,75.8,69.6,30.25,NE,56,1.0,1.0,81,0.00,,,0.00,Wunderground v.1.15,2013-01-08 15:05:00,
2013-01-08 10:15:00,76.0,69.7,30.25,NNE,32,1.0,1.0,81,0.00,,,0.00,Wunderground v.1.15,2013-01-08 15:15:00,
2013-01-08 10:20:00,76.2,69.6,30.24,NE,40,1.0,1.0,80,0.00,,,0.00,Wunderground v.1.15,2013-01-08 15:20:00,
2013-01-08 10:30:00,77.6,70.6,30.24,NNW,329,0.0,2.0,79,0.00,,,0.00,Wunderground v.1.15,2013-01-08 15:30:00,
2013-01-08 10:35:00,77.8,69.6,30.24,ESE,108,0.0,2.0,76,0.00,,,0.00,Wunderground v.1.15,2013-01-08 15:35:00,
2013-01-08 10:42:00,77.7,70.0,30.24,NE,34,0.0,5.0,77,0.00,,,0.00,weatherlink.com 1.10,2013-01-08 15:42:00,
2013-01-08 10:50:00,78.2,70.8,30.24,North,4,1.0,1.0,78,0.00,,,0.00,Wunderground v.1.15,2013-01-08 15:50:00,
2013-01-08 10:55:00,78.1,69.9,30.23,North,4,1.0,3.0,76,0.00,,,0.00,Wunderground v.1.15,2013-01-08 15:55:00,
2013-01-08 11:05:00,79.1,69.3,30.23,East,85,2.0,3.0,72,0.00,,,0.00,Wunderground v.1.15,2013-01-08 16:05:00,
2013-01-08 11:10:00,79.8,70.4,30.23,East,98,2.0,2.0,73,0.00,,,0.00,Wunderground v.1.15,2013-01-08 16:10:00,
2013-01-08 11:20:00,80.1,70.3,30.22,East,101,2.0,2.0,72,0.00,,,0.00,Wunderground v.1.15,2013-01-08 16:20:00,
2013-01-08 11:25:00,80.2,69.9,30.22,NE,50,2.0,2.0,71,0.00,,,0.00,Wunderground v.1.15,2013-01-08 16:25:00,
2013-01-08 11:30:00,80.0,70.2,30.22,North,351,1.0,2.0,72,0.00,,,0.00,Wunderground v.1.15,2013-01-08 16:30:00,
2013-01-08 11:35:00,80.5,71.0,30.22,East,86,1.0,2.0,73,0.00,,,0.00,Wunderground v.1.15,2013-01-08 16:35:00,
2013-01-08 11:45:00,81.5,70.8,30.21,ENE,71,1.0,1.0,70,0.00,,,0.00,Wunderground v.1.15,2013-01-08 16:45:00,
2013-01-08 11:50:00,81.7,70.1,30.21,East,91,1.0,2.0,68,0.00,,,0.00,Wunderground v.1.15,2013-01-08 16:50:00,
2013-01-08 12:04:00,80.9,69.0,30.20,East,94,0.0,4.0,68,0.00,,,0.00,weatherlink.com 1.10,2013-01-08 17:04:00,
2013-01-08 12:10:00,81.2,70.1,30.20,ENE,73,1.0,2.0,69,0.00,,,0.00,Wunderground v.1.15,2013-01-08 17:10:00,
2013-01-08 12:20:00,81.4,69.8,30.20,NW,321,1.0,5.0,68,0.00,,,0.00,Wunderground v.1.15,2013-01-08 17:20:00,
2013-01-08 12:25:00,81.2,69.2,30.20,North,11,1.0,1.0,67,0.00,,,0.00,Wunderground v.1.15,2013-01-08 17:25:00,
2013-01-08 12:35:00,81.0,68.6,30.19,East,96,1.0,2.0,66,0.00,,,0.00,Wunderground v.1.15,2013-01-08 17:35:00,
2013-01-08 12:40:00,80.7,68.7,30.19,East,84,1.0,2.0,67,0.00,,,0.00,Wunderground v.1.15,2013-01-08 17:40:00,
2013-01-08 12:45:00,80.3,68.8,30.19,NNE,12,1.0,1.0,68,0.00,,,0.00,Wunderground v.1.15,2013-01-08 17:45:00,
2013-01-08 12:54:00,79.5,68.0,30.18,NE,49,0.0,3.0,69,0.00,,,0.00,weatherlink.com 1.10,2013-01-08 17:54:00,
2013-01-08 13:00:00,79.8,68.7,30.18,NNE,24,0.0,1.0,69,0.00,,,0.00,Wunderground v.1.15,2013-01-08 18:00:00,
2013-01-08 13:05:00,80.2,69.1,30.18,NNE,30,1.0,1.0,69,0.00,,,0.00,Wunderground v.1.15,2013-01-08 18:05:00,
2013-01-08 13:10:00,80.2,69.1,30.18,ENE,59,1.0,1.0,69,0.00,,,0.00,Wunderground v.1.15,2013-01-08 18:10:00,
2013-01-08 13:15:00,80.4,70.1,30.18,East,85,0.0,2.0,71,0.00,,,0.00,Wunderground v.1.15,2013-01-08 18:15:00,
2013-01-08 13:25:00,80.5,69.4,30.17,ESE,107,2.0,2.0,69,0.00,,,0.00,Wunderground v.1.15,2013-01-08 18:25:00,
2013-01-08 13:30:00,81.1,69.5,30.17,ENE,77,2.0,2.0,68,0.00,,,0.00,Wunderground v.1.15,2013-01-08 18:30:00,
2013-01-08 13:40:00,80.7,70.0,30.17,ENE,72,1.0,1.0,70,0.00,,,0.00,Wunderground v.1.15,2013-01-08 18:40:00,
2013-01-08 13:45:00,80.5,69.8,30.17,NE,55,1.0,2.0,70,0.00,,,0.00,Wunderground v.1.15,2013-01-08 18:45:00,
2013-01-08 13:50:00,80.2,69.1,30.17,NE,56,1.0,1.0,69,0.00,,,0.00,Wunderground v.1.15,2013-01-08 18:50:00,
2013-01-08 13:55:00,79.7,69.0,30.17,NNE,19,1.0,1.0,70,0.00,,,0.00,Wunderground v.1.15,2013-01-08 18:55:00,
2013-01-08 14:05:00,79.3,68.7,30.16,NE,50,0.0,1.0,70,0.00,,,0.00,Wunderground v.1.15,2013-01-08 19:05:00,
2013-01-08 14:10:00,79.4,69.6,30.17,NW,306,0.0,1.0,72,0.00,,,0.00,Wunderground v.1.15,2013-01-08 19:10:00,
2013-01-08 14:15:00,79.6,69.8,30.16,NNE,27,0.0,1.0,72,0.00,,,0.00,Wunderground v.1.15,2013-01-08 19:15:00,
2013-01-08 14:25:00,80.1,69.0,30.16,ESE,107,1.0,1.0,69,0.00,,,0.00,Wunderground v.1.15,2013-01-08 19:25:00,
2013-01-08 14:30:00,80.6,69.1,30.16,ESE,111,0.0,4.0,68,0.00,,,0.00,Wunderground v.1.15,2013-01-08 19:30:00,
2013-01-08 14:40:00,80.5,69.4,30.16,NNE,16,1.0,1.0,69,0.00,,,0.00,Wunderground v.1.15,2013-01-08 19:40:00,
2013-01-08 14:45:00,80.3,69.2,30.16,NE,46,1.0,1.0,69,0.00,,,0.00,Wunderground v.1.15,2013-01-08 19:45:00,
2013-01-08 14:50:00,80.3,68.8,30.16,East,79,1.0,1.0,68,0.00,,,0.00,Wunderground v.1.15,2013-01-08 19:50:00,
2013-01-08 14:55:00,80.3,68.8,30.16,NE,56,0.0,1.0,68,0.00,,,0.00,Wunderground v.1.15,2013-01-08 19:55:00,
2013-01-08 15:05:00,80.1,67.7,30.16,NE,40,1.0,1.0,66,0.00,,,0.00,Wunderground v.1.15,2013-01-08 20:05:00,
2013-01-08 15:10:00,80.0,68.5,30.16,ENE,57,0.0,0.0,68,0.00,,,0.00,Wunderground v.1.15,2013-01-08 20:10:00,
2013-01-08 15:20:00,79.9,68.8,30.16,NE,51,1.0,1.0,69,0.00,,,0.00,Wunderground v.1.15,2013-01-08 20:20:00,
2013-01-08 15:25:00,80.0,68.5,30.16,NE,46,0.0,1.0,68,0.00,,,0.00,Wunderground v.1.15,2013-01-08 20:25:00,
2013-01-08 15:30:00,80.1,69.0,30.16,ENE,59,0.0,0.0,69,0.00,,,0.00,Wunderground v.1.15,2013-01-08 20:30:00,
2013-01-08 15:38:00,80.0,69.0,30.16,ENE,68,1.0,2.0,69,0.00,,,0.00,weatherlink.com 1.10,2013-01-08 20:38:00,
2013-01-08 15:45:00,79.8,68.7,30.16,ENE,69,0.0,1.0,69,0.00,,,0.00,Wunderground v.1.15,2013-01-08 20:45:00,
2013-01-08 15:50:00,79.8,69.1,30.16,East,79,1.0,1.0,70,0.00,,,0.00,Wunderground v.1.15,2013-01-08 20:50:00,
2013-01-08 16:00:00,79.4,68.8,30.16,East,85,0.0,0.0,70,0.00,,,0.00,Wunderground v.1.15,2013-01-08 21:00:00,
2013-01-08 16:05:00,79.2,69.4,30.16,East,85,0.0,0.0,72,0.00,,,0.00,Wunderground v.1.15,2013-01-08 21:05:00,
2013-01-08 16:11:00,79.0,69.0,30.16,ENE,59,1.0,2.0,72,0.00,,,0.00,weatherlink.com 1.10,2013-01-08 21:11:00,
2013-01-08 16:20:00,78.7,69.7,30.16,NE,46,0.0,0.0,74,0.00,,,0.00,Wunderground v.1.15,2013-01-08 21:20:00,
2013-01-08 16:25:00,78.6,69.6,30.16,NW,317,0.0,2.0,74,0.00,,,0.00,Wunderground v.1.15,2013-01-08 21:25:00,
2013-01-08 16:30:00,78.4,69.0,30.16,ENE,67,0.0,0.0,73,0.00,,,0.00,Wunderground v.1.15,2013-01-08 21:30:00,
2013-01-08 16:40:00,78.2,69.6,30.16,East,84,0.0,2.0,75,0.00,,,0.00,Wunderground v.1.15,2013-01-08 21:40:00,
2013-01-08 16:45:00,78.0,69.4,30.16,ENE,58,0.0,2.0,75,0.00,,,0.00,Wunderground v.1.15,2013-01-08 21:45:00,
2013-01-08 16:50:00,77.9,69.3,30.16,East,86,0.0,0.0,75,0.00,,,0.00,Wunderground v.1.15,2013-01-08 21:50:00,
2013-01-08 17:00:00,77.7,70.0,30.16,NE,50,0.0,1.0,76,0.00,,,0.00,weatherlink.com 1.10,2013-01-08 22:00:00,
2013-01-08 17:05:00,77.5,69.3,30.16,NE,55,0.0,0.0,76,0.00,,,0.00,Wunderground v.1.15,2013-01-08 22:05:00,
2013-01-08 17:15:00,77.2,69.0,30.17,ENE,63,0.0,0.0,76,0.00,,,0.00,Wunderground v.1.15,2013-01-08 22:15:00,
2013-01-08 17:20:00,77.1,68.9,30.17,NNE,25,0.0,0.0,76,0.00,,,0.00,Wunderground v.1.15,2013-01-08 22:20:00,
2013-01-08 20:00:00,72.1,68.0,30.19,NE,41,0.0,0.0,87,0.00,,,0.00,Wunderground v.1.15,2013-01-09 01:00:00,
2013-01-08 20:05:00,71.9,67.8,30.19,NE,53,0.0,0.0,87,0.00,,,0.00,Wunderground v.1.15,2013-01-09 01:05:00,
2013-01-08 20:15:00,71.6,67.5,30.19,NE,52,0.0,0.0,87,0.00,,,0.00,Wunderground v.1.15,2013-01-09 01:15:00,
2013-01-08 20:20:00,71.4,67.3,30.19,NE,53,0.0,0.0,87,0.00,,,0.00,Wunderground v.1.15,2013-01-09 01:20:00,
2013-01-08 20:30:00,71.0,67.3,30.19,NE,52,0.0,0.0,88,0.00,,,0.00,Wunderground v.1.15,2013-01-09 01:30:00,
2013-01-08 20:35:00,70.8,67.1,30.19,NE,41,0.0,0.0,88,0.00,,,0.00,Wunderground v.1.15,2013-01-09 01:35:00,
2013-01-08 20:45:00,70.8,67.1,30.20,NE,34,0.0,0.0,88,0.00,,,0.00,Wunderground v.1.15,2013-01-09 01:45:00,
2013-01-08 20:50:00,70.8,67.1,30.20,NNE,29,0.0,0.0,88,0.00,,,0.00,Wunderground v.1.15,2013-01-09 01:50:00,
2013-01-08 20:55:00,70.8,67.1,30.20,NNE,29,0.0,0.0,88,0.00,,,0.00,Wunderground v.1.15,2013-01-09 01:55:00,
2013-01-08 21:00:00,70.8,67.1,30.20,ENE,57,0.0,0.0,88,0.00,,,0.00,Wunderground v.1.15,2013-01-09 02:00:00,
2013-01-08 21:10:00,70.8,67.4,30.20,ENE,57,0.0,0.0,89,0.00,,,0.00,Wunderground v.1.15,2013-01-09 02:10:00,
2013-01-08 21:15:00,70.8,67.4,30.20,NNE,28,0.0,0.0,89,0.00,,,0.00,Wunderground v.1.15,2013-01-09 02:15:00,
2013-01-08 21:21:00,70.9,68.0,30.20,NE,36,0.0,2.0,90,0.00,,,0.00,weatherlink.com 1.10,2013-01-09 02:21:00,
2013-01-08 21:30:00,70.9,68.1,30.20,NE,56,0.0,0.0,91,0.00,,,0.00,Wunderground v.1.15,2013-01-09 02:30:00,
2013-01-08 21:35:00,70.9,68.1,30.20,NE,54,0.0,0.0,91,0.00,,,0.00,Wunderground v.1.15,2013-01-09 02:35:00,
2013-01-08 21:45:00,70.9,68.1,30.20,NNE,30,0.0,0.0,91,0.00,,,0.00,Wunderground v.1.15,2013-01-09 02:45:00,
2013-01-08 21:50:00,70.9,68.1,30.20,NE,54,0.0,0.0,91,0.00,,,0.00,Wunderground v.1.15,2013-01-09 02:50:00,
2013-01-08 22:00:00,70.7,67.9,30.21,NE,53,0.0,1.0,91,0.00,,,0.00,Wunderground v.1.15,2013-01-09 03:00:00,
2013-01-08 22:05:00,70.7,67.9,30.21,NE,53,0.0,1.0,91,0.00,,,0.00,Wunderground v.1.15,2013-01-09 03:05:00,
2013-01-08 22:10:00,70.6,67.8,30.21,NE,36,0.0,0.0,91,0.00,,,0.00,Wunderground v.1.15,2013-01-09 03:10:00,
2013-01-08 22:20:00,70.5,68.1,30.21,NNE,15,0.0,1.0,92,0.00,,,0.00,Wunderground v.1.15,2013-01-09 03:20:00,
2013-01-08 22:25:00,70.4,68.0,30.21,NE,47,0.0,1.0,92,0.00,,,0.00,Wunderground v.1.15,2013-01-09 03:25:00,
2013-01-08 22:35:00,70.4,68.0,30.21,NE,43,0.0,1.0,92,0.00,,,0.00,Wunderground v.1.15,2013-01-09 03:35:00,
2013-01-08 22:40:00,70.5,68.1,30.22,NE,34,0.0,0.0,92,0.00,,,0.00,Wunderground v.1.15,2013-01-09 03:40:00,
2013-01-08 22:45:00,70.5,68.1,30.22,NE,34,0.0,0.0,92,0.00,,,0.00,Wunderground v.1.15,2013-01-09 03:45:00,
2013-01-08 22:50:00,70.5,68.1,30.22,NNE,19,0.0,0.0,92,0.00,,,0.00,Wunderground v.1.15,2013-01-09 03:50:00,
2013-01-08 22:59:00,70.5,68.0,30.22,NE,36,0.0,1.0,92,0.00,,,0.00,weatherlink.com 1.10,2013-01-09 03:59:00,
2013-01-08 23:05:00,70.5,68.1,30.22,NE,39,0.0,0.0,92,0.00,,,0.00,Wunderground v.1.15,2013-01-09 04:05:00,
2013-01-08 23:10:00,70.5,68.1,30.22,NE,39,0.0,0.0,92,0.00,,,0.00,Wunderground v.1.15,2013-01-09 04:10:00,
2013-01-08 23:15:00,70.4,68.0,30.22,NE,39,0.0,0.0,92,0.00,,,0.00,Wunderground v.1.15,2013-01-09 04:15:00,
2013-01-08 23:25:00,70.3,68.2,30.22,NE,39,0.0,0.0,93,0.00,,,0.00,Wunderground v.1.15,2013-01-09 04:25:00,
2013-01-08 23:30:00,70.3,68.2,30.22,NE,39,0.0,0.0,93,0.00,,,0.00,Wunderground v.1.15,2013-01-09 04:30:00,
2013-01-08 23:40:00,70.1,68.0,30.22,NE,38,0.0,0.0,93,0.00,,,0.00,Wunderground v.1.15,2013-01-09 04:40:00,
2013-01-08 23:45:00,70.2,68.1,30.22,NE,44,0.0,0.0,93,0.00,,,0.00,Wunderground v.1.15,2013-01-09 04:45:00,
2013-01-08 23:50:00,70.2,68.1,30.22,NE,44,0.0,0.0,93,0.00,,,0.00,Wunderground v.1.15,2013-01-09 04:50:00,